Sitka, AK

12:47 AM AKST on February 14, 2016 (GMT -0900)
Sitka Rocky Gutierrez

Weather History for PASI - September, 2013

Change the Weather History Date:

Monday, September 9, 2013

  Actual Average Record
Temperature  
Mean Temperature 56 °F -  
Max Temperature 61 °F 58 °F 72 °F (1956)
Min Temperature 51 °F 48 °F 40 °F (1970)
Degree Days  
Heating Degree Days 10    
Growing Degree Days 6 (Base 50)    
Moisture  
Dew Point 50 °F    
Average Humidity 84    
Maximum Humidity 93    
Minimum Humidity 72    
Precipitation  
Precipitation 0.00 in - - ()
Sea Level Pressure  
Sea Level Pressure 30.15 in    
Wind  
Wind Speed 3 mph (East)    
Max Wind Speed 7 mph    
Max Gust Speed -    
Visibility 9 miles    
Events      
Averages and records for this station are not official NWS values.
T = Trace of Precipitation, MM = Missing Value Source: NWS Daily Summary

Daily Weather History Graph

Daily Weather History Graph

Search for Another Location

Airport or City:

Trip Planner

Search our weather history database for the weather conditions in past years. The results will help you decide how hot, cold, wet, or windy it might be!

Date:

Astronomy

Sep. 09, 2013 Rise Set
Actual Time 6:20 AM AKDT 7:35 PM AKDT
Civil Twilight 5:41 AM AKDT 8:14 PM AKDT
Nautical Twilight 4:52 AM AKDT 9:02 PM AKDT
Astronomical Twilight 3:58 AM AKDT 9:56 PM AKDT
Moon 11:54 AM AKDT (9/9) 8:51 PM AKDT (9/9)
Length of Visible Light 14h 32m
Length of Day
13h 14m
Waxing Crescent, 20% of the Moon is Illuminated
Sep 9
Waxing Crescent
Sep 12
First Quarter
Sep 19
Full
Sep 26
Last Quarter
Oct 4
New

Hourly Weather History & Observations

Time (AKDT) Temp. Dew Point Humidity Pressure Visibility Wind Dir Wind Speed Gust Speed Precip Events Conditions
12:53 AM 52.0 °F 50.0 °F 93% 30.17 in 10.0 mi East 6.9 mph - N/A   Clear
1:15 AM 52.0 °F 50.0 °F 93% 30.17 in 10.0 mi Calm Calm - N/A   Mostly Cloudy
1:53 AM 52.0 °F 50.0 °F 93% 30.17 in 9.0 mi Calm Calm - N/A   Scattered Clouds
2:03 AM 52.0 °F 50.0 °F 93% 30.16 in 9.0 mi East 4.6 mph - N/A   Mostly Cloudy
2:53 AM 52.0 °F 50.0 °F 93% 30.16 in 10.0 mi Calm Calm - N/A   Overcast
3:53 AM 52.0 °F 50.0 °F 93% 30.15 in 10.0 mi Calm Calm - N/A   Mostly Cloudy
4:02 AM 52.0 °F 50.0 °F 93% 30.15 in 10.0 mi Calm Calm - N/A   Scattered Clouds
4:53 AM 51.1 °F 48.9 °F 92% 30.15 in 8.0 mi Calm Calm - N/A   Clear
5:53 AM 51.1 °F 48.9 °F 92% 30.14 in 7.0 mi ESE 5.8 mph - N/A   Scattered Clouds
6:53 AM 52.0 °F 48.9 °F 89% 30.14 in 7.0 mi Calm Calm - N/A   Overcast
7:53 AM 53.1 °F 50.0 °F 89% 30.15 in 8.0 mi East 3.5 mph - N/A   Overcast
8:53 AM 54.0 °F 50.0 °F 86% 30.15 in 8.0 mi SSE 4.6 mph - N/A   Overcast
9:53 AM 55.9 °F 51.1 °F 84% 30.15 in 10.0 mi SE 3.5 mph - N/A   Overcast
10:53 AM 57.0 °F 50.0 °F 77% 30.14 in 10.0 mi West 3.5 mph - N/A   Overcast
11:53 AM 57.9 °F 52.0 °F 81% 30.14 in 10.0 mi NW 4.6 mph - N/A   Mostly Cloudy
12:53 PM 59.0 °F 51.1 °F 75% 30.16 in 9.0 mi Calm Calm - N/A   Mostly Cloudy
1:53 PM 60.1 °F 52.0 °F 75% 30.17 in 8.0 mi West 5.8 mph - N/A   Mostly Cloudy
2:53 PM 60.1 °F 52.0 °F 75% 30.16 in 9.0 mi North 4.6 mph - N/A   Overcast
3:53 PM 60.1 °F 51.1 °F 72% 30.15 in 10.0 mi Calm Calm - N/A   Mostly Cloudy
4:53 PM 60.1 °F 51.1 °F 72% 30.14 in 9.0 mi West 3.5 mph - N/A   Mostly Cloudy
5:53 PM 59.0 °F 50.0 °F 72% 30.13 in 10.0 mi Calm Calm - N/A   Overcast
6:53 PM 59.0 °F 51.1 °F 75% 30.13 in 10.0 mi Calm Calm - N/A   Scattered Clouds
7:53 PM 57.9 °F 51.1 °F 78% 30.13 in 10.0 mi East 3.5 mph - N/A   Overcast
8:53 PM 55.0 °F 50.0 °F 83% 30.12 in 10.0 mi ENE 3.5 mph - N/A   Overcast
9:53 PM 53.1 °F 50.0 °F 89% 30.12 in 10.0 mi East 5.8 mph - N/A   Clear
10:53 PM 54.0 °F 50.0 °F 86% 30.12 in 10.0 mi East 4.6 mph - N/A   Overcast
11:53 PM 54.0 °F 50.0 °F 86% 30.10 in 10.0 mi Calm Calm - N/A   Mostly Cloudy